APRIZESAT 2

Last updated on Fri Jun 19 2026 20:04:31 GMT+0000 (Coordinated Universal Time)

1 28366U 04025A 26170.37212284 .00000122 00000+0 51444-4 0 9997 2 28366 98.1017 336.2288 0104392 243.1751 115.8733 14.38036493151957
UTC large
Height (km)
Speed (km/s)
/
Latitude / Longitude
Inclination (degrees)
Orbital Period (minutes)
Azimuth
Elevation
Range (km)
Doppler Factor

Next 0 passes for location: London (51.5072 / 0.1276)

Sorry there are no passes over London.
APRIZESAT 2